User: anonymous   Login
Location: Stonelick Lake State Park
(39.2170°N, 84.0850°W)
Time: 05:29:46
(UTC-04:00)
Language:

Lacrosse 5 - Orbit

View from above orbital plane
View from above orbital plane
View from above satellite
View from above satellite

Ground track
Ground track

The orbit data is extracted from the following two-line orbital elements,

1 28646U 05016A   17105.81959521 0.00000000  00000-0  00000-0 0    05
2 28646  57.0130 359.0361 0006000 143.6800 216.3200 14.51755632    02
Epoch (UTC): 15 April 2017 19:40:13
Eccentricity: 0.0006000
inclination: 57.0130°
perigee height: 715 km
apogee height: 724 km
right ascension of ascending node: 359.0361°
argument of perigee: 143.6800°
revolutions per day: 14.51755632
mean anomaly at epoch: 216.3200°
orbit number at epoch: 0

The dashed part of the orbit path shows where the satellite is in the earth's shadow,  

DLR